QPF
0.04 0.03 0.02 0.02 0.02 0.02 0.02 0.03 0.04 0.04 0.04 0.04 0.04 0.03 0.03 0.03 0.04 0.03 0.03 0.02 0.02 0.01 0.01 0.01 0.01 0.01 0.01 0.01 0.01 0.01 0.01 0.01 0.01 0.02 0.02 0.03 0.04 0.05
0.02 0.02 0.02 0.02 0.02 0.02 0.02 0.03 0.03 0.04 0.05 0.04 0.04 0.03 0.03 0.02 0.02 0.02 0.02 0.01 0.01 0.01 0.00 0.00 0.00 0.00 0.00 0.01 0.01 0.01 0.01 0.01 0.01 0.01 0.02 0.03 0.03 0.04
0.03 0.02 0.02 0.02 0.01 0.01 0.01 0.01 0.02 0.02 0.02 0.02 0.01 0.01 0.01 0.01 0.01 0.00 0.00 0.00 0.00 0.00 0.00 0.00 0.00 0.00 0.01 0.01 0.01 0.01 0.01 0.01 0.01 0.01 0.01 0.02 0.02 0.03
0.01 0.01 0.01 0.01 0.00 0.00 0.01 0.01 0.01 0.01 0.01 0.01 0.01 0.00 0.00 0.00 0.00 0.00 0.00 0.00 0.00 0.00 0.00 0.00 0.00 0.01 0.00 0.00 0.01 0.00 0.00 0.00 0.01 0.01 0.01 0.01 0.01 0.02
0.00 0.00 0.00 0.00 0.01 0.01 0.01 0.01 0.01 0.00 0.00 0.00 0.00 0.00 0.00 0.00 0.00 0.00 0.00 0.00 0.00 0.00 0.00 0.00 0.00 0.00 0.00 0.00 0.00 0.00 0.00 0.00 0.00 0.00 0.00 0.01 0.01 0.01
0.00 0.00 0.00 0.00 0.00 0.00 0.00 0.00 0.00 0.00 0.00 0.00 0.00 0.00 0.00 0.00 0.00 0.00 0.00 0.00 0.00 0.00 0.00 0.00 0.00 0.00 0.00 0.00 0.00 0.00 0.00 0.00 0.00 0.00 0.00 0.00 0.00 0.00
0.00 0.00 0.00 0.00 0.00 0.00 0.00 0.00 0.00 0.00 0.00 0.00 0.00 0.00 0.00 0.00 0.00 0.00 0.00 0.00 0.00 0.00 0.00 0.00 0.00 0.00 0.00 0.00 0.00 0.00 0.00 0.00 0.00 0.00 0.00 0.00 0.00 0.00
0.00 0.00 0.00 0.00 0.00 0.00 0.00 0.00 0.00 0.00 0.00 0.00 0.00 0.00 0.00 0.00 0.00 0.00 0.00 0.00 0.00 0.00 0.00 0.00 0.00 0.00 0.00 0.00 0.00 0.00 0.00 0.00 0.00 0.00 0.00 0.00 0.00 0.00
0.00 0.00 0.00 0.00 0.00 0.00 0.00 0.00 0.00 0.00 0.00 0.00 0.00 0.00 0.00 0.00 0.00 0.00 0.00 0.00 0.00 0.00 0.00 0.00 0.00 0.00 0.00 0.00 0.00 0.00 0.00 0.00 0.00 0.00 0.00 0.00 0.00 0.00
0.00 0.00 0.00 0.00 0.00 0.00 0.00 0.00 0.00 0.00 0.00 0.01 0.00 0.00 0.00 0.00 0.00 0.00 0.00 0.00 0.00 0.01 0.01 0.00 0.00 0.00 0.00 0.00 0.00 0.00 0.00 0.00 0.00 0.00 0.00 0.00 0.00 0.00
0.00 0.00 0.00 0.00 0.00 0.00 0.00 0.00 0.00 0.00 0.00 0.00 0.00 0.00 0.00 0.00 0.00 0.00 0.00 0.00 0.00 0.00 0.01 0.00 0.00 0.00 0.00 0.00 0.00 0.00 0.00 0.00 0.00 0.00 0.00 0.00 0.00 0.00
0.00 0.00 0.00 0.00 0.00 0.00 0.00 0.00 0.00 0.00 0.00 0.00 0.00 0.00 0.01 0.01 0.01 0.01 0.01 0.01 0.01 0.01 0.00 0.00 0.00 0.00 0.00 0.00 0.00 0.00 0.00 0.00 0.00 0.00 0.00 0.00 0.00 0.00
0.00 0.00 0.00 0.00 0.00 0.00 0.00 0.00 0.00 0.00 0.00 0.01 0.01 0.01 0.01 0.01 0.01 0.01 0.01 0.01 0.01 0.01 0.01 0.01 0.00 0.00 0.00 0.00 0.00 0.00 0.00 0.00 0.00 0.00 0.00 0.00 0.01 0.01
0.00 0.00 0.00 0.00 0.00 0.00 0.00 0.00 0.00 0.00 0.00 0.01 0.01 0.00 0.00 0.00 0.01 0.01 0.01 0.01 0.01 0.01 0.01 0.01 0.00 0.00 0.00 0.00 0.00 0.00 0.00 0.00 0.00 0.00 0.00 0.01 0.01 0.01
0.00 0.00 0.00 0.00 0.00 0.00 0.00 0.00 0.00 0.00 0.00 0.00 0.00 0.00 0.01 0.01 0.00 0.00 0.00 0.01 0.01 0.00 0.00 0.01 0.00 0.00 0.00 0.00 0.00 0.00 0.00 0.00 0.00 0.00 0.01 0.01 0.01 0.01
0.00 0.00 0.00 0.00 0.00 0.00 0.00 0.00 0.00 0.00 0.00 0.00 0.00 0.00 0.01 0.00 0.00 0.01 0.00 0.00 0.00 0.00 0.00 0.00 0.00 0.00 0.00 0.00 0.00 0.00 0.00 0.00 0.00 0.00 0.01 0.01 0.01 0.01
0.00 0.00 0.00 0.00 0.00 0.00 0.01 0.00 0.00 0.00 0.00 0.00 0.00 0.00 0.01 0.00 0.01 0.01 0.01 0.00 0.00 0.00 0.00 0.00 0.00 0.00 0.00 0.00 0.00 0.00 0.00 0.00 0.00 0.00 0.01 0.01 0.00 0.00
0.00 0.00 0.01 0.00 0.00 0.00 0.00 0.00 0.00 0.00 0.00 0.00 0.00 0.00 0.00 0.01 0.00 0.00 0.00 0.00 0.00 0.00 0.00 0.00 0.00 0.00 0.00 0.00 0.00 0.00 0.00 0.00 0.00 0.00 0.00 0.00 0.00 0.00
0.00 0.00 0.01 0.00 0.00 0.00 0.00 0.00 0.00 0.00 0.00 0.00 0.00 0.00 0.00 0.00 0.01 0.01 0.00 0.00 0.00 0.00 0.00 0.00 0.00 0.00 0.00 0.00 0.00 0.00 0.00 0.00 0.00 0.00 0.00 0.00 0.00 0.00
0.00 0.00 0.00 0.00 0.00 0.00 0.00 0.00 0.00 0.00 0.00 0.00 0.00 0.00 0.00 0.00 0.00 0.00 0.00 0.00 0.00 0.00 0.00 0.00 0.00 0.00 0.00 0.00 0.00 0.00 0.00 0.00 0.00 0.00 0.00 0.00 0.00 0.00
0.00 0.00 0.00 0.00 0.00 0.00 0.00 0.00 0.00 0.00 0.00 0.00 0.00 0.00 0.00 0.00 0.00 0.00 0.00 0.00 0.00 0.00 0.00 0.00 0.00 0.00 0.00 0.00 0.00 0.00 0.00 0.00 0.00 0.00 0.00 0.00 0.00 0.00
0.00 0.00 0.00 0.00 0.00 0.00 0.00 0.00 0.00 0.00 0.00 0.00 0.00 0.00 0.00 0.00 0.00 0.00 0.00 0.00 0.00 0.00 0.00 0.00 0.00 0.00 0.00 0.00 0.00 0.00 0.00 0.00 0.00 0.00 0.00 0.00 0.00 0.00
0.00 0.00 0.00 0.00 0.00 0.00 0.00 0.00 0.00 0.00 0.00 0.00 0.00 0.00 0.00 0.00 0.00 0.00 0.00 0.00 0.00 0.00 0.00 0.00 0.00 0.00 0.00 0.00 0.00 0.00 0.00 0.00 0.00 0.00 0.00 0.00 0.00 0.00
MSLP
1023.78 1023.77 1023.80 1023.84 1023.88 1023.90 1023.88 1023.80 1023.65 1023.43 1023.15 1022.83 1022.46 1022.08 1021.71 1021.36 1021.05 1020.79 1020.56 1020.38 1020.23 1020.09 1019.95 1019.80 1019.63 1019.45 1019.26 1019.07 1018.90 1018.75 1018.63 1018.56 1018.51 1018.49 1018.48 1018.45 1018.39 1018.30
1024.16 1024.14 1024.15 1024.18 1024.22 1024.24 1024.23 1024.17 1024.04 1023.86 1023.61 1023.30 1022.94 1022.55 1022.14 1021.72 1021.31 1020.92 1020.56 1020.23 1019.93 1019.65 1019.40 1019.17 1018.94 1018.72 1018.52 1018.34 1018.18 1018.06 1017.98 1017.94 1017.93 1017.95 1017.97 1017.98 1017.96 1017.90
1024.43 1024.38 1024.37 1024.39 1024.42 1024.43 1024.43 1024.39 1024.29 1024.14 1023.93 1023.65 1023.32 1022.93 1022.49 1022.02 1021.53 1021.04 1020.55 1020.09 1019.65 1019.25 1018.89 1018.56 1018.27 1018.02 1017.79 1017.61 1017.46 1017.36 1017.30 1017.28 1017.30 1017.34 1017.39 1017.43 1017.45 1017.43
1024.65 1024.58 1024.55 1024.54 1024.55 1024.56 1024.56 1024.52 1024.45 1024.33 1024.15 1023.91 1023.60 1023.22 1022.78 1022.28 1021.74 1021.17 1020.59 1020.01 1019.46 1018.96 1018.50 1018.09 1017.74 1017.44 1017.19 1016.99 1016.84 1016.74 1016.68 1016.67 1016.69 1016.74 1016.80 1016.86 1016.90 1016.91
1024.87 1024.78 1024.73 1024.70 1024.69 1024.68 1024.66 1024.61 1024.54 1024.43 1024.27 1024.06 1023.77 1023.41 1022.98 1022.47 1021.89 1021.28 1020.63 1019.99 1019.37 1018.79 1018.26 1017.80 1017.40 1017.06 1016.79 1016.56 1016.40 1016.28 1016.21 1016.18 1016.18 1016.21 1016.26 1016.32 1016.36 1016.37
1025.15 1025.04 1024.96 1024.90 1024.85 1024.80 1024.74 1024.67 1024.58 1024.45 1024.29 1024.08 1023.80 1023.45 1023.03 1022.52 1021.95 1021.32 1020.66 1019.99 1019.34 1018.73 1018.17 1017.68 1017.25 1016.89 1016.59 1016.35 1016.16 1016.02 1015.91 1015.84 1015.81 1015.80 1015.81 1015.83 1015.85 1015.85
1025.46 1025.33 1025.23 1025.13 1025.03 1024.93 1024.81 1024.68 1024.53 1024.37 1024.17 1023.94 1023.66 1023.31 1022.89 1022.41 1021.85 1021.25 1020.61 1019.96 1019.32 1018.72 1018.17 1017.69 1017.26 1016.90 1016.60 1016.34 1016.12 1015.94 1015.79 1015.68 1015.59 1015.52 1015.48 1015.44 1015.41 1015.37
1025.77 1025.63 1025.49 1025.34 1025.18 1025.01 1024.82 1024.61 1024.39 1024.15 1023.90 1023.63 1023.32 1022.96 1022.56 1022.10 1021.58 1021.03 1020.44 1019.85 1019.27 1018.72 1018.22 1017.77 1017.38 1017.03 1016.73 1016.47 1016.23 1016.02 1015.83 1015.66 1015.51 1015.37 1015.26 1015.16 1015.07 1014.97
1026.04 1025.87 1025.69 1025.49 1025.26 1025.01 1024.73 1024.43 1024.12 1023.81 1023.48 1023.15 1022.81 1022.45 1022.05 1021.62 1021.15 1020.66 1020.15 1019.65 1019.15 1018.69 1018.26 1017.87 1017.53 1017.23 1016.95 1016.69 1016.44 1016.20 1015.97 1015.75 1015.53 1015.34 1015.15 1014.99 1014.82 1014.66
1026.20 1026.00 1025.77 1025.51 1025.22 1024.89 1024.53 1024.15 1023.75 1023.36 1022.96 1022.58 1022.20 1021.82 1021.43 1021.03 1020.62 1020.21 1019.79 1019.38 1018.98 1018.61 1018.28 1017.97 1017.69 1017.43 1017.18 1016.94 1016.68 1016.43 1016.16 1015.90 1015.64 1015.38 1015.15 1014.91 1014.69 1014.47
1026.25 1026.01 1025.74 1025.43 1025.07 1024.67 1024.24 1023.79 1023.33 1022.87 1022.42 1021.99 1021.58 1021.18 1020.81 1020.44 1020.09 1019.74 1019.41 1019.09 1018.80 1018.53 1018.28 1018.05 1017.83 1017.62 1017.40 1017.17 1016.92 1016.65 1016.37 1016.08 1015.78 1015.49 1015.21 1014.94 1014.67 1014.41
1026.22 1025.93 1025.61 1025.25 1024.85 1024.40 1023.93 1023.43 1022.92 1022.42 1021.93 1021.47 1021.04 1020.64 1020.28 1019.94 1019.63 1019.35 1019.09 1018.85 1018.64 1018.45 1018.28 1018.11 1017.95 1017.78 1017.59 1017.37 1017.13 1016.86 1016.57 1016.26 1015.95 1015.64 1015.34 1015.05 1014.76 1014.47
1026.13 1025.80 1025.43 1025.04 1024.61 1024.14 1023.65 1023.13 1022.61 1022.09 1021.59 1021.12 1020.68 1020.28 1019.92 1019.61 1019.32 1019.08 1018.87 1018.69 1018.54 1018.41 1018.29 1018.18 1018.06 1017.91 1017.75 1017.54 1017.30 1017.03 1016.74 1016.43 1016.12 1015.82 1015.52 1015.23 1014.94 1014.65
1026.05 1025.68 1025.28 1024.87 1024.43 1023.96 1023.47 1022.96 1022.45 1021.94 1021.45 1020.98 1020.54 1020.14 1019.78 1019.47 1019.19 1018.97 1018.78 1018.63 1018.52 1018.42 1018.34 1018.25 1018.15 1018.03 1017.87 1017.68 1017.45 1017.19 1016.90 1016.60 1016.30 1016.01 1015.73 1015.45 1015.18 1014.90
1026.01 1025.61 1025.20 1024.78 1024.35 1023.90 1023.44 1022.96 1022.48 1022.00 1021.52 1021.06 1020.62 1020.21 1019.84 1019.51 1019.23 1019.00 1018.81 1018.66 1018.55 1018.47 1018.40 1018.33 1018.24 1018.13 1017.98 1017.80 1017.57 1017.32 1017.04 1016.76 1016.48 1016.21 1015.95 1015.71 1015.46 1015.20
1026.03 1025.63 1025.22 1024.82 1024.41 1024.00 1023.58 1023.14 1022.70 1022.24 1021.79 1021.33 1020.88 1020.46 1020.06 1019.71 1019.39 1019.13 1018.91 1018.75 1018.63 1018.54 1018.47 1018.40 1018.32 1018.22 1018.08 1017.90 1017.68 1017.44 1017.17 1016.91 1016.64 1016.40 1016.17 1015.95 1015.73 1015.50
1026.11 1025.72 1025.34 1024.97 1024.61 1024.24 1023.87 1023.48 1023.07 1022.65 1022.20 1021.75 1021.28 1020.83 1020.39 1019.99 1019.63 1019.31 1019.06 1018.86 1018.72 1018.61 1018.53 1018.46 1018.38 1018.28 1018.15 1017.98 1017.77 1017.54 1017.28 1017.03 1016.79 1016.56 1016.35 1016.16 1015.96 1015.75
1026.23 1025.88 1025.55 1025.23 1024.91 1024.60 1024.27 1023.93 1023.55 1023.15 1022.71 1022.24 1021.75 1021.25 1020.77 1020.31 1019.89 1019.52 1019.22 1018.98 1018.80 1018.67 1018.58 1018.51 1018.43 1018.33 1018.20 1018.04 1017.84 1017.61 1017.36 1017.12 1016.88 1016.66 1016.47 1016.29 1016.11 1015.92
1026.37 1026.08 1025.81 1025.55 1025.29 1025.03 1024.75 1024.44 1024.08 1023.69 1023.24 1022.75 1022.23 1021.68 1021.14 1020.62 1020.14 1019.72 1019.37 1019.09 1018.87 1018.73 1018.62 1018.54 1018.46 1018.36 1018.24 1018.08 1017.88 1017.65 1017.40 1017.15 1016.91 1016.69 1016.50 1016.32 1016.16 1015.99
1026.52 1026.31 1026.10 1025.91 1025.70 1025.49 1025.24 1024.95 1024.61 1024.21 1023.75 1023.24 1022.68 1022.09 1021.50 1020.92 1020.39 1019.92 1019.51 1019.19 1018.95 1018.78 1018.66 1018.56 1018.48 1018.38 1018.26 1018.09 1017.89 1017.65 1017.39 1017.13 1016.88 1016.64 1016.44 1016.26 1016.10 1015.94
1026.68 1026.55 1026.41 1026.27 1026.11 1025.93 1025.71 1025.43 1025.10 1024.69 1024.21 1023.67 1023.08 1022.45 1021.82 1021.20 1020.62 1020.11 1019.67 1019.31 1019.04 1018.85 1018.71 1018.60 1018.50 1018.39 1018.26 1018.08 1017.86 1017.61 1017.34 1017.05 1016.78 1016.53 1016.31 1016.12 1015.96 1015.80
1026.87 1026.80 1026.72 1026.62 1026.50 1026.34 1026.12 1025.85 1025.51 1025.09 1024.59 1024.03 1023.41 1022.76 1022.10 1021.45 1020.84 1020.30 1019.83 1019.45 1019.15 1018.93 1018.77 1018.65 1018.53 1018.40 1018.25 1018.06 1017.82 1017.55 1017.25 1016.95 1016.65 1016.37 1016.13 1015.93 1015.76 1015.61
1027.08 1027.06 1027.01 1026.94 1026.83 1026.67 1026.46 1026.17 1025.82 1025.38 1024.87 1024.29 1023.66 1022.99 1022.32 1021.66 1021.04 1020.48 1019.99 1019.60 1019.28 1019.04 1018.86 1018.71 1018.56 1018.42 1018.24 1018.03 1017.77 1017.48 1017.16 1016.84 1016.52 1016.23 1015.97 1015.75 1015.57 1015.42
Thickness
5598 5595 5592 5589 5587 5584 5581 5578 5572 5566 5561 5559 5558 5556 5553 5550 5547 5544 5540 5537 5534 5531 5527 5524 5521 5517 5515 5511 5508 5505 5503 5500 5497 5495 5493 5492 5490 5489
5583 5580 5577 5573 5570 5567 5564 5560 5556 5550 5544 5541 5540 5539 5536 5534 5531 5528 5525 5522 5520 5517 5513 5510 5506 5503 5501 5498 5496 5492 5490 5487 5484 5481 5479 5477 5476 5474
5567 5565 5561 5558 5554 5550 5547 5542 5537 5532 5526 5522 5522 5521 5518 5516 5514 5512 5509 5507 5505 5502 5499 5497 5494 5491 5489 5486 5484 5481 5478 5475 5472 5469 5467 5465 5463 5462
5552 5549 5546 5542 5537 5533 5529 5524 5519 5515 5509 5504 5502 5501 5500 5499 5497 5495 5494 5492 5490 5489 5487 5485 5483 5481 5479 5477 5474 5471 5468 5465 5462 5459 5457 5454 5453 5451
5538 5534 5530 5526 5521 5517 5512 5507 5502 5499 5493 5488 5484 5484 5484 5484 5483 5482 5481 5479 5478 5477 5476 5475 5473 5471 5470 5468 5466 5463 5460 5457 5453 5450 5447 5445 5442 5441
5524 5521 5517 5512 5507 5503 5498 5493 5488 5483 5478 5474 5471 5470 5470 5471 5469 5467 5467 5468 5468 5469 5468 5466 5465 5464 5462 5461 5459 5456 5452 5449 5445 5442 5439 5436 5434 5432
5511 5508 5504 5500 5495 5491 5487 5481 5477 5472 5468 5464 5462 5460 5459 5459 5458 5457 5456 5457 5459 5460 5458 5459 5458 5457 5456 5454 5452 5449 5445 5442 5438 5435 5431 5429 5427 5425
5498 5495 5492 5488 5484 5480 5477 5474 5470 5466 5461 5458 5456 5454 5454 5454 5453 5452 5450 5448 5449 5454 5451 5452 5453 5451 5451 5449 5446 5443 5439 5435 5432 5429 5426 5423 5421 5419
5488 5485 5482 5479 5475 5472 5469 5468 5466 5464 5462 5458 5455 5454 5454 5454 5451 5450 5449 5446 5445 5449 5447 5446 5448 5446 5447 5444 5441 5437 5433 5430 5427 5424 5421 5419 5417 5415
5480 5477 5474 5472 5469 5466 5464 5463 5463 5463 5462 5460 5457 5457 5457 5456 5453 5450 5448 5446 5446 5447 5445 5441 5442 5441 5442 5440 5436 5432 5429 5426 5423 5420 5418 5416 5414 5412
5473 5472 5470 5468 5466 5463 5461 5460 5460 5462 5463 5462 5461 5460 5460 5459 5456 5451 5448 5444 5443 5443 5443 5439 5438 5436 5436 5434 5432 5429 5426 5423 5421 5418 5416 5413 5411 5409
5467 5467 5466 5465 5464 5462 5459 5457 5457 5459 5460 5461 5462 5462 5461 5460 5458 5454 5450 5444 5441 5439 5441 5437 5434 5431 5430 5430 5429 5427 5424 5422 5419 5417 5414 5412 5410 5407
5461 5462 5463 5463 5463 5463 5461 5458 5458 5458 5458 5458 5458 5459 5459 5459 5458 5455 5452 5447 5442 5439 5440 5437 5433 5429 5425 5423 5425 5425 5423 5420 5418 5416 5413 5411 5408 5405
5457 5459 5460 5462 5463 5464 5463 5462 5461 5460 5458 5457 5456 5455 5455 5455 5456 5455 5453 5450 5446 5443 5442 5438 5434 5430 5425 5421 5420 5422 5422 5420 5417 5415 5413 5410 5407 5404
5456 5458 5459 5462 5463 5463 5462 5462 5461 5458 5456 5454 5453 5453 5453 5454 5454 5454 5453 5450 5448 5446 5444 5440 5436 5432 5427 5423 5420 5419 5419 5419 5418 5415 5412 5409 5405 5403
5456 5457 5459 5460 5460 5460 5460 5459 5458 5456 5454 5452 5451 5452 5453 5453 5452 5451 5449 5447 5445 5444 5444 5442 5439 5435 5430 5426 5422 5419 5418 5417 5417 5415 5412 5409 5405 5402
5452 5453 5454 5454 5454 5454 5454 5454 5454 5453 5452 5451 5450 5449 5450 5450 5450 5449 5447 5445 5442 5441 5440 5441 5440 5436 5433 5429 5425 5422 5420 5419 5418 5415 5412 5409 5406 5402
5450 5448 5448 5448 5448 5448 5447 5448 5448 5448 5447 5448 5447 5447 5447 5447 5447 5448 5446 5444 5442 5441 5440 5440 5438 5436 5434 5432 5429 5425 5422 5420 5419 5417 5413 5409 5406 5404
5448 5446 5445 5445 5444 5444 5444 5443 5442 5443 5444 5444 5444 5444 5445 5446 5445 5446 5445 5444 5443 5442 5442 5441 5438 5435 5431 5430 5432 5429 5424 5422 5420 5417 5415 5411 5407 5406
5444 5443 5443 5442 5442 5441 5440 5439 5439 5440 5440 5441 5441 5442 5442 5443 5444 5444 5444 5444 5444 5443 5443 5443 5441 5438 5435 5433 5431 5432 5431 5426 5422 5419 5417 5414 5412 5410
5442 5441 5440 5439 5439 5438 5437 5436 5436 5436 5436 5437 5438 5439 5440 5441 5442 5443 5444 5446 5445 5444 5443 5444 5445 5445 5442 5438 5435 5434 5434 5433 5428 5423 5420 5417 5414 5411
5440 5438 5438 5437 5436 5435 5434 5433 5433 5433 5434 5434 5435 5437 5438 5440 5441 5443 5444 5445 5445 5445 5446 5447 5449 5447 5444 5441 5438 5437 5436 5436 5434 5431 5427 5423 5418 5415
5438 5436 5435 5434 5433 5432 5431 5431 5430 5430 5431 5431 5433 5435 5437 5439 5441 5443 5445 5447 5447 5448 5448 5448 5449 5448 5446 5444 5442 5440 5441 5439 5436 5434 5433 5432 5428 5424